Home   Weather   Aqtobe   Past weeks

Flag for Kazakhstan Past Weather in Aqtobe, Kazakhstan — Yesterday and Last 2 Weeks

36 °F


Feels Like: 28 °F
Forecast: 27 / 33 °F
Wind: 10 mph from Southeast

Location: Aktjubinsk

Current Time: Oct 27, 2016 at 10:04:48 PM

Latest Report: Oct 27, 2016 at 9:30 PM

Visibility: 10 mi

Pressure: 30.57 "Hg

Humidity: 38%

Dew Point: 12 °F

Location of AqtobeLocation

Past Weather in Aqtobe — Graph


Aqtobe Temperature Yesterday

Maximum temperature yesterday: 43 °F (at 3:30 PM)
Minimum temperature yesterday: 27 °F (at 9:30 PM)
Average temperature yesterday: 34 °F

High & Low Weather Summary for the Past Weeks

High46 °F (Oct 14, 2:00 PM)100% (Oct 16, 9:30 AM)30.89 "Hg (Oct 16, 9:30 AM)
Low18 °F (Oct 22, 4:30 AM)35% (Oct 27, 5:00 PM)30.09 "Hg (Oct 15, 5:30 AM)
Average32 °F73%30.46 "Hg
* Reported Oct 12 9:00 PM — Oct 27 9:00 PM, Aqtobe, Weather by CustomWeather, © 2016

Note: Actual official high and low records may vary slightly from our data, if they occured in-between our weather recording intervals... More about our weather records


Aqtobe Weather History for the Previous 24 Hours

Scroll right to see more
Time TempWeatherWind HumidityBarometerVisibility
9:00 PM
Thu, Oct 27
36 °FClear.10 mph41%30.57 "Hg10 mi
8:30 PM36 °FClear.10 mph38%30.57 "Hg10 mi
8:00 PM36 °FClear.10 mph38%30.57 "Hg10 mi
7:30 PM36 °FClear.10 mph41%30.57 "Hg10 mi
7:00 PM36 °FClear.10 mph41%30.57 "Hg10 mi
6:30 PM36 °FClear.10 mph44%30.60 "Hg10 mi
6:00 PM36 °FClear.10 mph41%30.60 "Hg10 mi
5:30 PM37 °FSunny.13 mph35%30.60 "Hg10 mi
5:00 PM37 °FSunny.15 mph35%30.63 "Hg10 mi
4:30 PM39 °FSunny.13 mph36%30.63 "Hg10 mi
4:00 PM39 °FSunny.13 mph39%30.63 "Hg10 mi
3:30 PM39 °FSunny.15 mph42%30.63 "Hg10 mi
3:00 PM39 °FSunny.17 mph48%30.66 "Hg10 mi
2:30 PM39 °FOvercast.15 mph52%30.66 "HgN/A
2:00 PM37 °FSunny.15 mph56%30.66 "Hg10 mi
1:30 PM37 °FSunny.17 mph56%30.69 "Hg10 mi
1:00 PM37 °FSunny.15 mph56%30.69 "Hg10 mi
12:30 PM37 °FSunny.15 mph56%30.69 "Hg10 mi
12:00 PM37 °FSunny.13 mph56%30.72 "Hg10 mi
11:30 AM36 °FSunny.13 mph60%30.72 "Hg10 mi
11:00 AM34 °FSunny.8 mph70%30.74 "Hg10 mi
10:30 AM34 °FPassing clouds.3 mph70%30.74 "HgN/A
10:00 AM28 °FSunny.3 mph80%30.74 "Hg10 mi
9:30 AM27 °FSunny.6 mph86%30.74 "Hg10 mi
9:00 AM25 °FSunny.6 mph86%30.74 "Hg10 mi
8:30 AM23 °FBroken clouds.6 mph93%30.77 "HgN/A
8:00 AM23 °FScattered clouds.3 mph93%30.77 "HgN/A
7:30 AM23 °FPassing clouds.3 mph93%30.74 "HgN/A
7:00 AM23 °FPassing clouds.3 mph86%30.77 "HgN/A
6:30 AM21 °FPassing clouds.3 mph93%30.77 "HgN/A
6:00 AM21 °FClear.3 mph93%30.77 "Hg10 mi
5:30 AM21 °FClear.3 mph93%30.77 "Hg10 mi
5:00 AM21 °FClear.3 mph93%30.77 "Hg10 mi
4:30 AM19 °FClear.1 mph93%30.77 "Hg10 mi
4:00 AM19 °FClear.1 mph86%30.77 "Hg10 mi
3:30 AM21 °FClear.1 mph93%30.77 "Hg10 mi
3:00 AM21 °FClear.1 mph93%30.80 "Hg10 mi
2:30 AM23 °FClear.1 mph86%30.80 "Hg10 mi
2:00 AM23 °FClear.3 mph86%30.80 "Hg10 mi
1:30 AM25 °FClear.No wind86%30.80 "Hg10 mi
1:00 AM25 °FClear.6 mph93%30.80 "Hg10 mi
12:30 AM23 °FClear.3 mph93%30.80 "Hg10 mi
12:00 AM25 °FClear.1 mph93%30.80 "Hg10 mi
11:30 PM
Wed, Oct 26
27 °FPassing clouds.3 mph86%30.80 "HgN/A
11:00 PM27 °FClear.1 mph86%30.80 "Hg10 mi
10:30 PM27 °FPassing clouds.3 mph86%30.80 "HgN/A
10:00 PM27 °FClear.1 mph86%30.80 "Hg10 mi
Weather by CustomWeather, © 2016

See weather overviewHow to use our weather pages